[[{"header":{"parameterUnit":"m.s-1","parameterCategory":1,"la1":30.2991,"la2":30.254,"lo1":-89.0895,"lo2":-89.0444,"dy":0.0017,"dx":0.0017,"nx":28,"ny":28,"refTime":"2024-07-25T09:00:00:Z","depth":0,"parameterNumber":2,"parameterNumberName":"U-component_of_WINDS"},"data":[0,0,0,0,0,0,0,0,0,0,0,0,0,0,0,0,0,0,0,0,0,0,0,0,0,0,0,0,0,0,0,0,0,0,0,0,0,0,0,0,0,0,0,0,0,0,0,0,0,0,0,0,0,0,0,0,0,0,-2.0021,-2.0021,0,-2.0026,-2.0026,-2.0026,-1.9955,-1.9953,-1.9951,-1.9949,-1.9955,-1.9957,-1.9959,0,0,0,0,0,0,0,0,0,0,0,0,0,-1.9952,-1.9954,-2.0021,-2.0021,-2.0021,-2.0026,-2.0026,-2.0026,-1.9955,-1.9953,-1.995,-1.9948,-1.9955,-1.9957,-1.9959,0,0,0,0,0,0,0,0,0,0,0,0,0,-1.9972,-1.9955,-2.0021,-1.9987,-1.9983,-2.0026,-2.0026,-2.0026,-1.9956,-1.9953,-1.995,-1.9947,-1.9954,-1.9957,-1.996,-2.0036,0,0,-1.9969,-1.997,0,0,0,0,0,0,0,0,-1.9971,-1.9975,-1.9992,-1.9989,-1.9986,-1.9987,-2.0004,-2.003,-1.9956,-1.9966,-1.9949,-1.9946,-1.9968,-1.997,-1.9977,-2.0036,-2.0037,-1.9969,-1.9971,-1.9972,-1.9973,0,0,0,0,0,0,0,-1.997,-1.9974,-2.0023,-1.9992,-1.9988,-1.9971,-1.9971,-2.0008,-1.9984,-1.9965,-1.996,-1.9961,-1.9966,-1.9974,-1.9977,-2.0037,-1.9969,-1.9972,-1.9973,-1.9975,-2.016,-2.0163,0,0,0,0,0,0,-1.9973,-1.9974,-2.0023,-2.0023,-1.9971,-1.9975,-1.9974,-1.9989,-1.9983,-1.9979,-1.9964,-1.9958,-1.9971,-1.9973,-1.9977,-2.0066,-1.9972,-1.9975,-1.9976,-2.0157,-2.0161,-2.0164,0,0,0,0,0,0,-1.9972,-1.9978,-2.0023,-1.9997,-2.0001,-1.9979,-1.9997,-1.9991,-1.9999,-1.9982,-1.9977,-1.9977,-1.9969,-1.9973,-2.0022,-2.0066,-1.9976,-1.9979,-2.0153,-2.0158,-2.0162,-2.0246,0,0,0,0,0,0,-1.997,-1.9978,-2.0007,-1.9998,-2.0003,-2.0068,-1.9999,-1.9993,-2.0004,-1.9997,-1.9993,-1.999,-1.9967,-2.0018,-2.0025,-2.0068,-1.9981,-2.0149,-2.0155,-2.0161,-2.0239,-2.0253,-2.0265,0,0,0,0,0,-1.9968,-2.003,-2.0008,-2.0015,-2.0038,-2.007,-2.0073,-2.0045,-2.0008,-2.0037,-2.0026,-1.999,-2.006,-2.0024,-2.0031,-2.0076,-2.0146,-2.0154,-2.016,-2.0234,-2.025,-2.0265,0,0,0,0,0,0,-2.0044,-2.0028,-2.0004,-2.0065,-2.007,-2.0058,-2.0094,-2.0064,-2.0079,-2.0071,-2.0036,-2.0036,-2.0092,-2.0088,-2.0048,-2.015,-2.0096,-2.0105,-2.015,-2.0165,-2.0178,-2.0178,-1.9984,0,0,0,0,0,-2.0068,-2.0095,-2.008,-2.0136,-2.0139,-2.0116,-2.0129,-2.0107,-2.0111,-2.0112,-2.0105,-2.011,-2.0133,-2.0149,-2.0169,-2.0238,-2.0237,-2.0273,-2.0286,-2.0296,-2.0304,-2.0342,-2.0357,-2.0187,-2.0187,-2.0187,0,0,-2.0118,-2.0113,-2.0132,-2.0151,-2.0152,-2.0181,-2.0118,-2.0152,-2.0174,-2.0117,-2.0164,-2.0159,-2.0162,-2.0222,-2.0248,-2.0221,-2.0351,-2.0305,-2.0314,-2.0316,-2.035,-2.0367,-2.0381,-2.0192,-2.0191,-2.019,0,0,-2.0224,-2.0222,-2.0268,-2.0271,-2.0273,-2.0257,-2.0269,-2.0262,-2.0256,-2.0302,-2.0261,-2.0287,-2.0327,-2.0331,-2.0339,-2.0447,-2.0415,-2.0455,-2.0522,-2.0558,-2.0572,-2.0583,-2.0623,-2.0637,-2.0463,-2.0463,-2.0463,0,-2.0285,-2.0328,-2.0296,-2.0333,-2.0343,-2.0293,-2.034,-2.0344,-2.0353,-2.0361,-2.0331,-2.0381,-2.038,-2.044,-2.0467,-2.0474,-2.0487,-2.0455,-2.0572,-2.0584,-2.0594,-2.0631,-2.0646,-2.0468,-2.0468,-2.0467,-2.0467,0,-2.0404,-2.0434,-2.0471,-2.0481,-2.0495,-2.0537,-2.0512,-2.053,-2.0507,-2.0495,-2.0543,-2.054,-2.0559,-2.0572,-2.055,-2.063,-2.0613,-2.0578,-2.0524,-2.0616,-2.065,-2.0664,-2.0475,-2.0473,-2.0472,-2.0471,0,0,-2.0557,-2.055,-2.0564,-2.0568,-2.0567,-2.059,-2.063,-2.0648,-2.0665,-2.0673,-2.0706,-2.0742,-2.071,-2.0718,-2.0696,-2.0729,-2.0816,-2.0689,-2.0689,-2.0714,-2.0904,-2.0931,-2.0948,-2.0794,-2.0797,-2.0799,-2.0904,0,-2.0661,-2.0728,-2.0701,-2.0771,-2.0799,-2.0752,-2.0787,-2.0791,-2.0781,-2.0804,-2.0793,-2.0819,-2.0774,-2.0779,-2.0809,-2.0799,-2.0854,-2.0791,-2.0825,-2.0827,-2.0826,-2.0966,-2.0994,-2.1094,-2.0918,-2.092,-2.0921,0,-2.079,-2.0803,-2.0876,-2.0871,-2.0881,-2.0913,-2.0928,-2.095,-2.0954,-2.0945,-2.0955,-2.0926,-2.0966,-2.0912,-2.0966,-2.0924,-2.0937,-2.0934,-2.0937,-2.094,-2.088,-2.0973,-2.1125,-2.114,-2.0942,-2.094,-2.0939,0,-2.0895,-2.0931,-2.098,-2.0985,-2.098,-2.1003,-2.1003,-2.1003,-2.1016,-2.103,-2.1038,-2.1056,-2.1066,-2.1081,-2.1059,-2.1021,-2.1117,-2.1061,-2.1111,-2.1111,-2.1133,-2.1132,-2.129,-2.1141,-2.114,-2.114,-2.114,0,-2.1013,-2.106,-2.1027,-2.1057,-2.1108,-2.1077,-2.1129,-2.1123,-2.1124,-2.1152,-2.1113,-2.1141,-2.1109,-2.1134,-2.1116,-2.1164,-2.1169,-2.1163,-2.1158,-2.1167,-2.1168,-2.1175,-2.1168,-2.1144,-2.1143,-2.1142,-2.1142,0,-2.114,-2.112,-2.1169,-2.1161,-2.116,-2.1198,-2.1191,-2.1219,-2.1206,-2.1243,-2.1249,-2.123,-2.1257,-2.1236,-2.1263,-2.1251,-2.1315,-2.13,-2.1314,-2.131,-2.1361,-2.1357,-2.153,-2.1551,-2.1388,-2.1389,-2.1391,0,-2.1217,-2.1251,-2.1247,-2.1263,-2.1265,-2.1291,-2.1304,-2.1275,-2.1291,-2.1298,-2.1325,-2.1349,-2.1367,-2.1413,-2.1401,-2.1422,-2.1407,-2.1466,-2.141,-2.1418,-2.1409,-2.1407,-2.1411,-2.1478,-2.148,-2.1481,-2.1483,0,-2.1355,-2.1344,-2.1364,-2.1382,-2.1399,-2.1411,-2.142,-2.1436,-2.1407,-2.1426,-2.1454,-2.1467,-2.1495,-2.1519,-2.1536,-2.1536,-2.1505,-2.1501,-2.1513,-2.1523,-2.153,-2.1527,-2.1346,-2.1497,-2.1495,-2.1494,-2.1494,-2.1493,-2.146,-2.1489,-2.149,-2.1514,-2.1519,-2.1528,-2.1554,-2.1545,-2.1567,-2.1587,-2.1569,-2.1602,-2.1606,-2.1625,-2.1629,-2.1655,-2.163,-2.1649,-2.1653,-2.1658,-2.1666,-2.1526,-2.1658,-2.1657,-2.1657,-2.1656,-2.1656,0,-2.1597,-2.1596,-2.1618,-2.1633,-2.1652,-2.1621,-2.163,-2.1649,-2.1678,-2.1684,-2.1702,-2.1734,-2.1758,-2.1749,-2.177,-2.1793,-2.178,-2.18,-2.1798,-2.1799,-2.1686,-2.1673,-2.181,-2.181,-2.181,-2.181,-2.181,-2.181,-2.167,-2.1718,-2.1707,-2.1757,-2.1755,-2.1787,-2.1795,-2.1805,-2.1809,-2.1846,-2.1866,-2.186,-2.186,-2.1881,-2.1902,-2.1899,-2.1909,-2.1934,-2.1926,-2.1821,-2.1806,-2.1792,-2.1779,-2.1936,-2.1937,-2.2036,-2.2037,-2.2038]},{"header":{"parameterUnit":"m.s-1","parameterCategory":1,"la1":30.2991,"la2":30.254,"lo1":-89.0895,"lo2":-89.0444,"dy":0.0017,"dx":0.0017,"nx":28,"ny":28,"refTime":"2024-07-25T09:00:00:Z","depth":0,"parameterNumber":3,"parameterNumberName":"V-component_of_WINDS"},"data":[0,0,0,0,0,0,0,0,0,0,0,0,0,0,0,0,0,0,0,0,0,0,0,0,0,0,0,0,0,0,0,0,0,0,0,0,0,0,0,0,0,0,0,0,0,0,0,0,0,0,0,0,0,0,0,0,0,0,0.869,0.869,0,0.8686,0.8686,0.8686,0.8706,0.8707,0.8708,0.8708,0.87,0.8699,0.8698,0,0,0,0,0,0,0,0,0,0,0,0,0,0.8711,0.8711,0.869,0.869,0.869,0.8686,0.8686,0.8686,0.8706,0.8707,0.8708,0.8708,0.87,0.8699,0.8698,0,0,0,0,0,0,0,0,0,0,0,0,0,0.8704,0.8711,0.869,0.87,0.87,0.8686,0.8686,0.8686,0.8706,0.8707,0.8708,0.8709,0.8701,0.8699,0.8698,0.8673,0,0,0.8695,0.8694,0,0,0,0,0,0,0,0,0.8704,0.8703,0.8698,0.8699,0.87,0.8698,0.8691,0.8681,0.8706,0.8704,0.8708,0.8709,0.8698,0.8697,0.8694,0.8673,0.8672,0.8695,0.8694,0.8693,0.8693,0,0,0,0,0,0,0,0.8705,0.8704,0.8688,0.8698,0.8699,0.8703,0.8703,0.8689,0.8696,0.8704,0.8706,0.8705,0.8699,0.8696,0.8694,0.8672,0.8695,0.8694,0.8693,0.8692,0.863,0.8629,0,0,0,0,0,0,0.8705,0.8704,0.8688,0.8688,0.8705,0.8702,0.8702,0.8697,0.8696,0.8697,0.8704,0.8706,0.8697,0.8696,0.8694,0.8665,0.8693,0.8692,0.8692,0.8631,0.863,0.8629,0,0,0,0,0,0,0.8705,0.8703,0.8688,0.8696,0.8695,0.8701,0.8695,0.8697,0.8694,0.8696,0.8697,0.87,0.8698,0.8696,0.8679,0.8665,0.8692,0.8691,0.8632,0.8631,0.8629,0.8606,0,0,0,0,0,0,0.8706,0.8703,0.8694,0.8696,0.8694,0.8674,0.8695,0.8696,0.8692,0.8694,0.8693,0.8693,0.8698,0.868,0.8677,0.8664,0.869,0.8633,0.8631,0.863,0.8608,0.8604,0.8601,0,0,0,0,0,0.8706,0.8687,0.8694,0.8692,0.8684,0.8673,0.8672,0.868,0.8691,0.8682,0.8684,0.8693,0.8667,0.8678,0.8675,0.8661,0.8634,0.8632,0.863,0.861,0.8605,0.8601,0,0,0,0,0,0,0.8682,0.8688,0.8695,0.8676,0.8674,0.8677,0.8665,0.8674,0.8668,0.867,0.8679,0.8678,0.8659,0.8658,0.8671,0.8637,0.8652,0.8649,0.8638,0.8633,0.863,0.863,0.8689,0,0,0,0,0,0.8675,0.8667,0.8672,0.8654,0.8653,0.8659,0.8655,0.8661,0.8659,0.8658,0.8658,0.8655,0.8646,0.864,0.8631,0.8608,0.8608,0.8597,0.8593,0.859,0.8587,0.8575,0.857,0.8622,0.8622,0.8622,0,0,0.8659,0.8661,0.8655,0.865,0.8649,0.8639,0.8658,0.8648,0.864,0.8656,0.864,0.864,0.8637,0.8616,0.8607,0.8615,0.8573,0.8587,0.8585,0.8584,0.8572,0.8567,0.8563,0.862,0.862,0.8621,0,0,0.8626,0.8627,0.8613,0.8612,0.8612,0.8616,0.8612,0.8614,0.8615,0.86,0.8611,0.8602,0.8586,0.8583,0.858,0.8546,0.8555,0.8543,0.8523,0.8511,0.8507,0.8504,0.8492,0.8487,0.8541,0.8541,0.854,0,0.8607,0.8594,0.8604,0.8593,0.859,0.8605,0.859,0.8589,0.8584,0.8581,0.8591,0.8572,0.857,0.855,0.8542,0.8538,0.8534,0.8543,0.8507,0.8504,0.8501,0.8489,0.8485,0.8539,0.8539,0.8539,0.854,0,0.857,0.8561,0.855,0.8547,0.8543,0.853,0.8537,0.8531,0.8538,0.8541,0.8525,0.8524,0.8516,0.8511,0.8517,0.8491,0.8496,0.8506,0.8522,0.8494,0.8484,0.8479,0.8537,0.8538,0.8538,0.8538,0,0,0.8522,0.8526,0.8521,0.852,0.8521,0.8513,0.8501,0.8495,0.8489,0.8486,0.8475,0.8462,0.8471,0.8467,0.8473,0.8462,0.8436,0.8473,0.8473,0.8466,0.8407,0.84,0.8395,0.8441,0.8441,0.844,0.8407,0,0.849,0.847,0.8479,0.8457,0.8449,0.8463,0.8452,0.8451,0.8453,0.8446,0.8448,0.8438,0.8452,0.8449,0.8439,0.8441,0.8424,0.8443,0.843,0.843,0.8431,0.8389,0.8381,0.8351,0.8403,0.8403,0.8402,0,0.845,0.8446,0.8425,0.8427,0.8424,0.8414,0.8409,0.8402,0.84,0.8402,0.8398,0.8406,0.8393,0.8409,0.839,0.8404,0.8399,0.8399,0.8398,0.8397,0.8414,0.8387,0.8341,0.8337,0.8396,0.8396,0.8397,0,0.8417,0.8407,0.8393,0.8391,0.8393,0.8386,0.8386,0.8386,0.8381,0.8377,0.8374,0.8367,0.8363,0.8357,0.8362,0.8374,0.8343,0.8359,0.8344,0.8344,0.8337,0.8337,0.829,0.8334,0.8334,0.8334,0.8334,0,0.838,0.8366,0.8378,0.8369,0.8354,0.8364,0.8348,0.8349,0.8349,0.834,0.8351,0.8342,0.835,0.8341,0.8345,0.8329,0.8327,0.8328,0.8329,0.8327,0.8327,0.8324,0.8326,0.8333,0.8333,0.8333,0.8333,0,0.8341,0.8348,0.8334,0.8337,0.8338,0.8326,0.8329,0.832,0.8324,0.8312,0.831,0.8315,0.8306,0.8311,0.8301,0.8303,0.8283,0.8287,0.8284,0.8285,0.8269,0.8271,0.8218,0.8212,0.826,0.8259,0.8259,0,0.8317,0.8307,0.831,0.8306,0.8306,0.8298,0.8294,0.8303,0.8298,0.8296,0.8287,0.8279,0.8273,0.8257,0.8259,0.8251,0.8255,0.8237,0.8254,0.8252,0.8255,0.8256,0.8255,0.8234,0.8233,0.8233,0.8233,0,0.8274,0.8279,0.8273,0.8269,0.8265,0.8261,0.8259,0.8254,0.8263,0.8257,0.8248,0.8244,0.8234,0.8226,0.8219,0.8218,0.8226,0.8227,0.8223,0.8221,0.822,0.822,0.8275,0.8228,0.8229,0.8229,0.8229,0.823,0.8242,0.8234,0.8235,0.8229,0.8228,0.8226,0.8218,0.8221,0.8215,0.8208,0.8214,0.8203,0.8201,0.8193,0.8191,0.8183,0.819,0.8184,0.8182,0.8181,0.8179,0.8221,0.8181,0.8181,0.8181,0.8182,0.8182,0,0.82,0.8202,0.8196,0.8193,0.8188,0.8197,0.8195,0.819,0.8181,0.8179,0.8173,0.8163,0.8155,0.8157,0.8149,0.8142,0.8145,0.8139,0.814,0.814,0.8173,0.8177,0.8137,0.8137,0.8137,0.8137,0.8137,0.8137,0.8178,0.8165,0.8169,0.8155,0.8156,0.8147,0.8145,0.8143,0.8141,0.813,0.8124,0.8126,0.8125,0.8117,0.811,0.8111,0.8107,0.81,0.8102,0.8133,0.8137,0.8141,0.8146,0.8099,0.8099,0.8069,0.8069,0.8069]}]]